Other Surface Observations
Issued by NWS

Home | Current Version | Previous Version | Text Only | Print | Product List | Glossary On
Versions: 1 2 3 4 5 6 7 8 9 10 11 12 13 14 15 16 17 18 19 20 21 22 23 24 25 26 27 28 29 30 31 32 33 34 35 36 37 38 39 40 41 42 43 44 45 46 47 48 49 50
559
SXUS52 KTAE 181518
OSOTAE
OSOTAE
North Florida/South Alabama/Southwest Georgia Weather Roundup
National Weather Service Tallahassee Florida
1000 AM EST WED JAN 18 2017

Note: "fair" indicates few or no clouds below 12,000 feet with no
significant weather and/or obstructions to visibility.

!FLZ017-115-028-034-025-181600
...North Florida...

CITY           SKY/WX    TMP DP  RH WIND       PRES   REMARKS
TALLAHASSEE    FOG       64  64 100 W3        30.20R VSB 1/2
APALACHICOLA   CLOUDY    67  67 100 SW3       30.20R
PERRY          FOG       65  64  97 SW5       30.22R VSB 1/2
CROSS CITY     CLOUDY    66  63  88 S5        30.21S
JACKSONVILLE   PTSUNNY   66  63  90 SW9       30.18S
$$

!FLZ112-006-005-002-011-181600
...Florida Panhandle...

CITY           SKY/WX    TMP DP  RH WIND       PRES   REMARKS
MARIANNA       CLOUDY    66  66 100 SW6       30.19R FOG
BONIFAY        CLOUDY    66  66 100 CALM      30.21R FOG
PANAMA CITY NW FOG       68  67  96 CALM      30.19R VSB<1/4
TYNDALL AFB    CLOUDY    66  66 100 E3        30.21R
TYND DRONE APT PTSUNNY   66  68 100 CALM      30.21R FOG
DE FUNIAK SPR  FOG       63  63 100 CALM      30.21R VSB 1/4
EGLIN AFB      FOG       64  64 100 CALM      30.20R VSB 1/4
DESTIN         FOG       67  66  97 E3        30.19R VSB 1/2
HURLBURT       FOG       66  63  88 CALM      30.19R VSB 1
CRESTVIEW      FOG       66  65  96 CALM      30.21R VSB 1/4
PENSACOLA      FOG       68  66  93 CALM      30.19R VSB 1/4
$$

!ALZ063-066-181600
...South Alabama...

CITY           SKY/WX    TMP DP  RH WIND       PRES   REMARKS
DOTHAN         FOG       64  64 100 W5        30.23R VSB 1
OZARK CAIRNS   FOG       64  64 100 W5        30.20R VSB 3/4
FT RUCKER HELI CLOUDY    66  64  93 W6        30.20R
RUCKER HELI 3  NOT AVBL
RUCKER HELI 2  CLOUDY    65  64  97 CALM      30.20R FOG
FLORALA APT    CLOUDY    66  65  96 CALM      30.22R FOG
ANDALUSIA      NOT AVBL
TROY           CLOUDY    66  65  96 SW5       30.21R
EUFALA         CLOUDY    69  62  78 W6        30.20R
MOBILE         CLOUDY    68  66  93 CALM      30.20R FOG
$$

!GAZ120>161-181600
...Southwest and South Central Georgia...

CITY           SKY/WX    TMP DP  RH WIND       PRES   REMARKS
THOMASVILLE    FOG       64  64 100 W7        30.21R VSB 3/4
BAINBRIDGE     CLOUDY    63  61  94 SW3       30.21R VSB 1/4
MOODY AFB      CLOUDY    63  63 100 W6        30.19R
VALDOSTA       PTSUNNY   66  64  93 VRB3      30.20R FOG
MOULTRIE       CLOUDY    64  63  94 W7        30.21R FOG
BLAKELY        CLOUDY    66  64  94 W3        30.21R FOG
ALBANY         CLOUDY    64  64 100 W5        30.22R FOG
TIFTON         CLOUDY    64  64 100 W9        30.19R FOG
FITZGERALD     CLOUDY    65  65 100 W7        30.22R
CORDELE        NOT AVBL
AMERICUS       CLOUDY    64  63  94 NW12      30.23R
HOMERVILLE     FAIR      64  64 100 W9        30.20R
$$

!GMZ750-755-770-775-181600
...Coastal and Buoy Obs...

STATION/POSITION TIME  TEMP    WIND        PRES    VSBY  WAVE
                       AIR SEA DIR/SP/G                  HT/PER
                 (UTC) (F)     (DEG/KT/KT) (MB)    (MI)  (FT/S)
KEATON BEACH     1500   66     170/  6/  7 1022.9R
CEDAR KEY        1500   66     140/  3/  3 1023.5R
C TOWER          1500   66     150/  5/  5 1023.4R
APALACHICOLA BUO 1450   74 72  190/  8/  8 1022.4R         2/ 6
PANAMA CITY BUOY 1450   75 75              1022.1R         3/ 7
MOBILE BUOY      NOT AVBL
ORANGE BCH AL BU 1450   65 64   60/  4/  4 1022.1R         2/ 6
$$




USA.gov is the U.S. government's official web portal to all federal, state and local government web resources and services.